{"data":{"norad_id":64142,"epoch":"2026-09-20T22:02:04.068960Z","epoch_age_seconds":104213,"freshness":"FRESH","line1":"1 64142U 25111V   26263.91810265  .00013788  00000+0  50964-3 0  9991","line2":"2 64142  42.9998  55.0953 0001462 267.0844  92.9840 15.27579077 75320","mean_motion":15.27579077,"eccentricity":0.0001462,"inclination_deg":42.9998,"raan_deg":55.0953,"arg_perigee_deg":267.0844,"mean_anomaly_deg":92.984,"bstar":0.00050964,"rev_number":7532,"period_min":94.266805671887,"perigee_km":482.04875402378,"apogee_km":484.0549656464,"semimajor_km":6861.1888598351,"source":"CELESTRAK","updated_at":"2026-09-21T09:00:35.236382Z"}}